Regional Weather Roundup
Issued by NWS

Home | Current Version | Previous Version | Text Only | Print | Product List | Glossary On
Versions: 1 2 3 4 5 6 7 8 9 10 11 12 13 14 15 16 17 18 19 20 21 22 23 24 25 26 27 28 29 30 31 32 33 34 35 36 37 38 39 40 41 42 43 44 45 46 47 48 49 50
000
ASUS44 KBMX 282010
RWRAL

ALABAMA REGIONAL WEATHER ROUNDUP
NATIONAL WEATHER SERVICE BIRMINGHAM AL
300 PM CDT THU MAY 28 2015

NOTE: "FAIR" INDICATES FEW OR NO CLOUDS BELOW 12,000 FEET
WITH NO SIGNIFICANT WEATHER AND/OR OBSTRUCTIONS TO VISIBILITY.

THE REMARK "TC" DENOTES TEMPERATURE IN DEGREES CELSIUS.

ALZ001>011-014-016>018-020-282100-
NORTH ALABAMA

CITY           SKY/WX    TMP DP  RH WIND       PRES   REMARKS
MUSCLE SHOALS  MOSUNNY   80  67  64 E3        30.15F
HUNTSVILLE     PTSUNNY   81  68  64 E7        30.14F
DECATUR        PTSUNNY   80  68  66 SE5       30.14F
HALEYVILLE     FAIR      76  70  82 CALM      30.18F
GADSDEN        CLOUDY   N/A N/A N/A CALM      30.13F
$$

ALZ012-013-022-023-030>036-040>044-282100-
WEST CENTRAL ALABAMA

CITY           SKY/WX    TMP DP  RH WIND       PRES   REMARKS
TUSCALOOSA     PTSUNNY   76  69  79 CALM      30.14F
$$

ALZ015-024>027-033>036-040>044-282100-
CENTRAL ALABAMA

CITY           SKY/WX    TMP DP  RH WIND       PRES   REMARKS
BIRMINGHAM     TSTM      71  70  96 W13       30.18R FOG
MONTGOMERY     MOSUNNY   88  68  51 SW6       30.08F HX  91
SHELBY CO ARPT LGT RAIN  71  70  96 W6        30.15S FOG
MAXWELL AFB    MOSUNNY   86  70  58 SW3       30.08F HX  90
GREENVILLE     PTSUNNY   87  67  51 CALM      30.08F HX  90
$$

ALZ019-021-028-029-037-038-045>048-282100-
EAST CENTRAL ALABAMA

CITY           SKY/WX    TMP DP  RH WIND       PRES   REMARKS
ANNISTON       CLOUDY    82  66  58 VRB3      30.13F
ALEXANDER CITY PTSUNNY   85  65  52 E3        30.12F
AUBURN         PTSUNNY   81  64  57 SE7       30.13F
$$

ALZ051>064-282100-
SOUTHWEST ALABAMA

CITY           SKY/WX    TMP DP  RH WIND       PRES   REMARKS
MOBILE         PTSUNNY   82  71  69 S7        30.09F
BROOKLEY FIELD PTSUNNY   79  70  74 S7        30.10F
EVERGREEN      PTSUNNY   85  71  63 SE6       30.09F HX  90
$$

ALZ049-050-065>069-282100-
SOUTHEAST ALABAMA

CITY           SKY/WX    TMP DP  RH WIND       PRES   REMARKS
DOTHAN         MOSUNNY   85  69  58 E13       30.12F
OZARK          PTSUNNY   87  70  57 SE10      30.09S HX  91
TROY           PTSUNNY   82  71  69 E12G24    30.11S
EUFAULA        PTSUNNY   88  70  55 SE10      30.09F HX  93
$$


USA.gov is the U.S. government's official web portal to all federal, state and local government web resources and services.